Regional Weather Roundup
Issued by NWS Upton, NY

Current Version | Previous Version | Graphics & Text | Print | Product List | Glossary Off
Versions: 1 2 3 4 5 6 7 8 9 10 11 12 13 14 15 16 17 18 19 20 21 22 23 24 25 26 27 28 29 30 31 32 33 34 35 36 37 38 39 40 41 42 43 44 45 46 47 48 49 50

000
ASUS41 KOKX 280804
RWROKX

REGIONAL WEATHER ROUNDUP
NATIONAL WEATHER SERVICE NEW YORK NY
400 AM EDT FRI AUG 28 2015

NOTE: "FAIR" INDICATES FEW OR NO CLOUDS BELOW 12,000 FEET WITH NO
SIGNIFICANT WEATHER AND/OR OBSTRUCTIONS TO VISIBILITY.

NYZ071-072-176-178-NJZ106-104-280900-
NEW YORK CITY METRO AREA


CITY           SKY/WX    TMP DP  RH WIND       PRES   REMARKS
CENTRAL PARK   CLEAR     66  53  63 CALM      30.16S
LAGUARDIA APRT PTCLDY    68  55  63 W7        30.12S
KENNEDY INTL   PTCLDY    66  54  65 N5        30.14R
NEWARK/LIBERTY PTCLDY    64  54  69 W5        30.13S
BRNX BOT. GARD   N/A     64  55  72 NW1       30.14S
TETERBORO      CLEAR     63  53  70 CALM      30.13S
$$

NYZ177-179-078>081-280900-
LONG ISLAND NEW YORK

CITY           SKY/WX    TMP DP  RH WIND       PRES   REMARKS
FARMINGDALE    CLOUDY    68  55  63 NW5       30.13R
ISLIP          CLOUDY    65  56  72 N5        30.10S
SHIRLEY        CLEAR     62  56  80 N6        30.12R
WESTHAMPTON    CLEAR     64  57  78 N6        30.12S
MONTAUK POINT    N/A     68  58  70 N7        30.11S
$$

NYZ052-065-067-280900-
HUDSON VALLEY

CITY           SKY/WX    TMP DP  RH WIND       PRES   REMARKS
WHITE PLAINS   CLEAR     61  54  77 NW7       30.13R
NEWBURGH       NOT AVBL
MONTGOMERY     CLEAR     53  51  93 CALM      30.15S
POUGHKEEPSIE   CLEAR     54  52  93 CALM      30.14S
ALBANY         PTCLDY    57  53  86 CALM      30.15R
$$

NJZ001-105-106-008-010-013-015-019>022-104-280900-
NEW JERSEY

CITY           SKY/WX    TMP DP  RH WIND       PRES   REMARKS
NEWARK/LIBERTY PTCLDY    64  54  69 W5        30.13S
TETERBORO      CLEAR     63  53  70 CALM      30.13S
CALDWELL       CLEAR     57  53  86 CALM      30.15S
MORRISTOWN     CLEAR     50  46  87 CALM      30.15S
SOMERVILLE     CLEAR     53  51  93 CALM      30.14S
SUSSEX         CLEAR     50  48  93 CALM      30.16S
ANDOVER          N/A     52  51  97 CALM      30.16F
TRENTON        CLEAR     59  55  87 NW6       30.14S
MILLVILLE      CLEAR     56  54  93 CALM      30.14S
ATLANTIC CITY  CLEAR     58  54  86 CALM      30.14S
WRIGHTSTOWN    CLEAR     60  55  85 NW3       30.12S
TOMS RIVER     CLEAR     52  46  82 CALM      30.14S
BELMAR         CLEAR     57  48  72 NW5       30.13F
$$

PAZ047>061-062-071-280900-
EASTERN PENNSYLVANIA

CITY           SKY/WX    TMP DP  RH WIND       PRES   REMARKS
PHILADELPHIA   CLEAR     66  54  65 CALM      30.15S
ALLENTOWN      PTCLDY    54  52  93 CALM      30.17S
SCRANTON       CLEAR     55  50  83 E7        30.18S
$$

CTZ002-004>006-009-010-012-RIZ004-006-007-MAZ004-011-015-280900-
SOUTHERN NEW ENGLAND
 IN CT

CITY           SKY/WX    TMP DP  RH WIND       PRES   REMARKS
BRADLEY INTL   CLEAR     56  53  90 CALM      30.11S
HARTFORD       CLEAR     61  55  81 CALM      30.11S
DANBURY        CLEAR     54  50  86 SW5       30.15R
WTRBRY/OXFORD  CLEAR     55  48  76 NW5       30.15S
BRIDGEPORT     CLOUDY    64  55  72 N6        30.11S
MERIDEN        CLEAR     57  54  89 CALM      30.12S
NEW HAVEN      CLEAR     62  55  77 NW5       30.12R
CHESTER        NOT AVBL
GROTON         CLEAR     61  57  87 N7        30.10R
WILLIMANTIC    PTCLDY    57  54  89 CALM      30.12R

 IN RI

CITY           SKY/WX    TMP DP  RH WIND       PRES   REMARKS
PROVIDENCE     CLEAR     63  55  75 NW3       30.10R
BLOCK ISLAND   CLEAR     64  59  82 N7        30.10R
WESTERLY       CLEAR     61  56  83 N6        30.10S

 IN MA

CITY           SKY/WX    TMP DP  RH WIND       PRES   REMARKS
BOSTON         CLEAR     65  54  67 NW9       30.09R
WORCESTER      CLEAR     58  54  86 W8        30.12S
WESTFIELD      CLEAR     54  53  97 CALM      30.12R
PROVINCETOWN   CLEAR     66  55  68 NW10      30.08S
NANTUCKET      CLEAR     67  58  72 N7        30.07S
$$

ANZ330-335-338-340-345-350-353-355-280900-
COASTAL MARINE OBSERVATIONS


STATION/POSITION TIME  SKY/WX   TEMP    WIND        PRES    VSBY  WAVE
                                AIR SEA DIR/SP/G                  HT/PER
                 (UTC)          (F)     (DEG/KT/KT) (MB)    (MI)  (FT/S)
NY HARB ENTRANCE 0750            71 75  360/ 10/ 14 1019.7          2/10
4S FIRE IS       NOT AVBL
20S FIRE ISLAND  0650            71 74  350/ 10/ 12 1019.3          3/ 9
GREAT SOUTH BAY  0715            63 78   CALM  /  2   N/A
23SW MTP         0750            69 72  350/ 12/ 14 1018.7          3/11
HUDSON CANYON    NOT AVBL
KINGS POINT      0700            68 74   20/  5/  7 1019.5
EXECUTION ROCKS  0700            68     350/  6/ 10   N/A
CENTRAL LI SOUND NOT AVBL
EASTERN LI SOUND 0700            66 71  340/ 10/ 12   N/A
ROBBINS REEF     0700            67     330/  7/  9 1019.2
$$


>>>>>>>>>>>>>>>>>>>>>>>>>>>> KEY <<<<<<<<<<<<<<<<<<<<<<<<<<<
>                                                          <
>     SKY/WX - SKY CONDITION/PRESENT WEATHER               <
>     TMP    - TEMPERATURE IN FAHRENHEIT                   <
>     DP     - DEWPOINT IN FAHRENHEIT                      <
>     RH     - RELATIVE HUMIDITY IN PERCENT                <
>     WIND   - DIRECTION AND SPEED IN MPH                  <
>     PRES   - MEAN SEA LEVEL PRESSURE IN INCHES OF HG     <
>     WCI    - WIND CHILL INDEX                            <
>     VSB    - VISIBILITY IN MILES                         <
>     HX     - HEAT INDEX                                  <
>     TC     - TEMPERATURE IN CELSIUS                      <
>     VRB    - VARIABLE WIND DIRECTION                     <
>                                                          <
>>>>>>>>>>>>>>>>>>>>>>>>>>>> KEY <<<<<<<<<<<<<<<<<<<<<<<<<<<





USA.gov is the U.S. government's official web portal to all federal, state and local government web resources and services.